contact:dominique.lefevre@mio.osupytheas.fr, maurice.libes@osupytheas.fr, didier.mallarino@osupytheas.fr
Project:EMSO http://www.emso-fr.org/EMSO-France
Depth: 2436.0 m
Title:EMSO Ligure Ouest : Data MII capteur MICROCAT
DateTime_Computer,Latitude,Longitude,Temperature,Conductivity,Pressure,DateTime_Instrument
DateTime_Computer,Latitude,Longitude,degC,S m-1,dbar,DateTime_Instrument
2020-12-13T00:00:57Z,42.805,6.029,13.2993,4.60019,2470.017,2020-12-13T02:01:56Z
2020-12-13T00:04:00Z,42.805,6.029,13.2986,4.59999,2470.017,2020-12-13T02:04:59Z
2020-12-13T00:07:03Z,42.805,6.029,13.2983,4.60001,2470.017,2020-12-13T02:08:02Z
2020-12-13T00:10:06Z,42.805,6.029,13.2978,4.59998,2470.03,2020-12-13T02:11:05Z
2020-12-13T00:13:09Z,42.805,6.029,13.2986,4.59999,2470.03,2020-12-13T02:14:08Z
2020-12-13T00:16:13Z,42.805,6.029,13.2990,4.60010,2470.053,2020-12-13T02:17:11Z
2020-12-13T00:19:16Z,42.805,6.029,13.2984,4.60010,2470.03,2020-12-13T02:20:14Z
2020-12-13T00:22:19Z,42.805,6.029,13.2986,4.60019,2470.077,2020-12-13T02:23:18Z
2020-12-13T00:25:22Z,42.805,6.029,13.2987,4.60021,2470.04,2020-12-13T02:26:21Z
2020-12-13T00:28:25Z,42.805,6.029,13.2977,4.60000,2470.063,2020-12-13T02:29:24Z
2020-12-13T00:31:28Z,42.805,6.029,13.2990,4.60004,2470.053,2020-12-13T02:32:27Z
2020-12-13T00:34:31Z,42.805,6.029,13.2990,4.60014,2470.017,2020-12-13T02:35:30Z
2020-12-13T00:37:34Z,42.805,6.029,13.2989,4.60011,2470.017,2020-12-13T02:38:33Z
2020-12-13T00:40:38Z,42.805,6.029,13.2980,4.60002,2470.04,2020-12-13T02:41:36Z
2020-12-13T00:43:41Z,42.805,6.029,13.2995,4.60009,2470.053,2020-12-13T02:44:39Z
2020-12-13T00:46:44Z,42.805,6.029,13.2988,4.60003,2470.03,2020-12-13T02:47:42Z
2020-12-13T00:49:47Z,42.805,6.029,13.2988,4.60004,2469.993,2020-12-13T02:50:46Z
2020-12-13T00:52:50Z,42.805,6.029,13.2983,4.60001,2470.053,2020-12-13T02:53:49Z
2020-12-13T00:55:53Z,42.805,6.029,13.2991,4.60003,2469.993,2020-12-13T02:56:52Z
2020-12-13T00:58:56Z,42.805,6.029,13.2984,4.60008,2470.04,2020-12-13T02:59:55Z
2020-12-13T01:01:59Z,42.805,6.029,13.2981,4.60008,2470.077,2020-12-13T03:02:58Z
2020-12-13T01:05:03Z,42.805,6.029,13.2979,4.60001,2470.017,2020-12-13T03:06:01Z
2020-12-13T01:08:06Z,42.805,6.029,13.2991,4.60016,2470.053,2020-12-13T03:09:04Z
2020-12-13T01:11:09Z,42.805,6.029,13.2984,4.60009,2470.053,2020-12-13T03:12:07Z
2020-12-13T01:14:12Z,42.805,6.029,13.2980,4.59996,2470.053,2020-12-13T03:15:11Z
2020-12-13T01:17:15Z,42.805,6.029,13.2987,4.60024,2470.04,2020-12-13T03:18:14Z
2020-12-13T01:20:18Z,42.805,6.029,13.2990,4.60014,2470.063,2020-12-13T03:21:17Z
2020-12-13T01:23:21Z,42.805,6.029,13.2979,4.59998,2470.017,2020-12-13T03:24:20Z
2020-12-13T01:26:24Z,42.805,6.029,13.2990,4.60009,2470.04,2020-12-13T03:27:23Z
2020-12-13T01:29:28Z,42.805,6.029,13.2987,4.60006,2470.04,2020-12-13T03:30:26Z
2020-12-13T01:32:31Z,42.805,6.029,13.2985,4.60005,2470.049,2020-12-13T03:33:29Z
2020-12-13T01:35:34Z,42.805,6.029,13.2987,4.59998,2470.04,2020-12-13T03:36:32Z
2020-12-13T01:38:37Z,42.805,6.029,13.2989,4.60014,2470.077,2020-12-13T03:39:36Z
2020-12-13T01:41:40Z,42.805,6.029,13.2983,4.60011,2470.063,2020-12-13T03:42:39Z
2020-12-13T01:44:43Z,42.805,6.029,13.2986,4.60014,2470.1,2020-12-13T03:45:42Z
2020-12-13T01:47:46Z,42.805,6.029,13.2994,4.60021,2470.063,2020-12-13T03:48:45Z
2020-12-13T01:50:49Z,42.805,6.029,13.2979,4.60010,2470.087,2020-12-13T03:51:48Z
2020-12-13T01:53:53Z,42.805,6.029,13.2983,4.60016,2470.049,2020-12-13T03:54:51Z
2020-12-13T01:56:56Z,42.805,6.029,13.2986,4.60013,2470.087,2020-12-13T03:57:54Z
2020-12-13T01:59:59Z,42.805,6.029,13.2989,4.60024,2470.1,2020-12-13T04:00:57Z
2020-12-13T02:03:02Z,42.805,6.029,13.2986,4.60016,2470.04,2020-12-13T04:04:01Z
2020-12-13T02:06:05Z,42.805,6.029,13.2982,4.60010,2470.087,2020-12-13T04:07:04Z
2020-12-13T02:09:08Z,42.805,6.029,13.2982,4.60011,2470.053,2020-12-13T04:10:07Z
2020-12-13T02:12:11Z,42.805,6.029,13.2990,4.60014,2470.133,2020-12-13T04:13:10Z
2020-12-13T02:15:14Z,42.805,6.029,13.2986,4.60006,2470.11,2020-12-13T04:16:13Z
2020-12-13T02:18:17Z,42.805,6.029,13.2982,4.60003,2470.124,2020-12-13T04:19:16Z
2020-12-13T02:21:21Z,42.805,6.029,13.2994,4.60006,2470.124,2020-12-13T04:22:19Z
2020-12-13T02:24:24Z,42.805,6.029,13.2983,4.60003,2470.11,2020-12-13T04:25:22Z
2020-12-13T02:27:27Z,42.805,6.029,13.2985,4.60014,2470.087,2020-12-13T04:28:26Z
2020-12-13T02:30:30Z,42.805,6.029,13.2987,4.60003,2470.087,2020-12-13T04:31:29Z
2020-12-13T02:33:33Z,42.805,6.029,13.2979,4.59999,2470.147,2020-12-13T04:34:32Z
2020-12-13T02:36:36Z,42.805,6.029,13.2983,4.60004,2470.133,2020-12-13T04:37:35Z
2020-12-13T02:39:39Z,42.805,6.029,13.2983,4.60004,2470.133,2020-12-13T04:40:38Z
2020-12-13T02:42:42Z,42.805,6.029,13.2984,4.60013,2470.156,2020-12-13T04:43:41Z
2020-12-13T02:45:46Z,42.805,6.029,13.2985,4.60013,2470.133,2020-12-13T04:46:44Z
2020-12-13T02:48:49Z,42.805,6.029,13.2993,4.60007,2470.133,2020-12-13T04:49:47Z
2020-12-13T02:51:52Z,42.805,6.029,13.2976,4.59994,2470.147,2020-12-13T04:52:51Z
2020-12-13T02:54:55Z,42.805,6.029,13.2988,4.60017,2470.133,2020-12-13T04:55:54Z
2020-12-13T02:57:58Z,42.805,6.029,13.2990,4.60013,2470.11,2020-12-13T04:58:57Z
2020-12-13T03:01:01Z,42.805,6.029,13.2986,4.60016,2470.171,2020-12-13T05:02:00Z
2020-12-13T03:04:04Z,42.805,6.029,13.2983,4.59998,2470.11,2020-12-13T05:05:03Z
2020-12-13T03:07:07Z,42.805,6.029,13.2986,4.60020,2470.156,2020-12-13T05:08:06Z
2020-12-13T03:10:11Z,42.805,6.029,13.2991,4.60003,2470.124,2020-12-13T05:11:09Z
2020-12-13T03:13:14Z,42.805,6.029,13.2981,4.59997,2470.147,2020-12-13T05:14:12Z
2020-12-13T03:16:17Z,42.805,6.029,13.2982,4.60003,2470.133,2020-12-13T05:17:15Z
2020-12-13T03:19:20Z,42.805,6.029,13.2989,4.59999,2470.147,2020-12-13T05:20:19Z
2020-12-13T03:22:23Z,42.805,6.029,13.2987,4.60003,2470.156,2020-12-13T05:23:22Z
2020-12-13T03:25:26Z,42.805,6.029,13.2985,4.60003,2470.171,2020-12-13T05:26:25Z
2020-12-13T03:28:29Z,42.805,6.029,13.2984,4.60003,2470.194,2020-12-13T05:29:28Z
2020-12-13T03:31:32Z,42.805,6.029,13.2985,4.60004,2470.171,2020-12-13T05:32:31Z
2020-12-13T03:34:36Z,42.805,6.029,13.2990,4.60013,2470.156,2020-12-13T05:35:34Z
2020-12-13T03:37:39Z,42.805,6.029,13.2981,4.60003,2470.156,2020-12-13T05:38:37Z
2020-12-13T03:40:42Z,42.805,6.029,13.2991,4.60002,2470.18,2020-12-13T05:41:40Z
2020-12-13T03:43:45Z,42.805,6.029,13.2982,4.59999,2470.18,2020-12-13T05:44:44Z
2020-12-13T03:46:48Z,42.805,6.029,13.2983,4.59996,2470.18,2020-12-13T05:47:47Z
2020-12-13T03:49:51Z,42.805,6.029,13.2981,4.60007,2470.194,2020-12-13T05:50:50Z
2020-12-13T03:52:54Z,42.805,6.029,13.2987,4.60000,2470.217,2020-12-13T05:53:53Z
2020-12-13T03:55:57Z,42.805,6.029,13.2982,4.60001,2470.217,2020-12-13T05:56:56Z
2020-12-13T03:59:01Z,42.805,6.029,13.2985,4.60003,2470.194,2020-12-13T05:59:59Z
2020-12-13T04:02:04Z,42.805,6.029,13.2986,4.60009,2470.227,2020-12-13T06:03:02Z
2020-12-13T04:05:07Z,42.805,6.029,13.2984,4.59998,2470.18,2020-12-13T06:06:05Z
2020-12-13T04:08:10Z,42.805,6.029,13.2982,4.60000,2470.217,2020-12-13T06:09:09Z
2020-12-13T04:11:13Z,42.805,6.029,13.2984,4.60000,2470.24,2020-12-13T06:12:12Z
2020-12-13T04:14:16Z,42.805,6.029,13.2986,4.59996,2470.264,2020-12-13T06:15:15Z
2020-12-13T04:17:19Z,42.805,6.029,13.2980,4.60000,2470.227,2020-12-13T06:18:18Z
2020-12-13T04:20:22Z,42.805,6.029,13.2981,4.60003,2470.227,2020-12-13T06:21:21Z
2020-12-13T04:23:25Z,42.805,6.029,13.2984,4.60002,2470.217,2020-12-13T06:24:24Z
2020-12-13T04:26:29Z,42.805,6.029,13.2982,4.59992,2470.25,2020-12-13T06:27:27Z
2020-12-13T04:29:32Z,42.805,6.029,13.2979,4.59997,2470.203,2020-12-13T06:30:30Z
2020-12-13T04:32:35Z,42.805,6.029,13.2980,4.60001,2470.25,2020-12-13T06:33:34Z
2020-12-13T04:35:38Z,42.805,6.029,13.2986,4.60000,2470.217,2020-12-13T06:36:37Z
2020-12-13T04:38:41Z,42.805,6.029,13.2982,4.59997,2470.25,2020-12-13T06:39:40Z
2020-12-13T04:41:44Z,42.805,6.029,13.2983,4.59998,2470.227,2020-12-13T06:42:43Z
2020-12-13T04:44:47Z,42.805,6.029,13.2976,4.60009,2470.25,2020-12-13T06:45:46Z
2020-12-13T04:47:50Z,42.805,6.029,13.2983,4.60008,2470.217,2020-12-13T06:48:49Z
2020-12-13T04:50:54Z,42.805,6.029,13.2981,4.60006,2470.24,2020-12-13T06:51:52Z
2020-12-13T04:53:57Z,42.805,6.029,13.2980,4.59997,2470.24,2020-12-13T06:54:55Z
2020-12-13T04:57:00Z,42.805,6.029,13.2983,4.59996,2470.24,2020-12-13T06:57:59Z
2020-12-13T05:00:03Z,42.805,6.029,13.2979,4.59996,2470.273,2020-12-13T07:01:02Z
2020-12-13T05:03:06Z,42.805,6.029,13.2982,4.60009,2470.227,2020-12-13T07:04:05Z
2020-12-13T05:06:09Z,42.805,6.029,13.2983,4.59996,2470.217,2020-12-13T07:07:08Z
2020-12-13T05:09:12Z,42.805,6.029,13.2980,4.59996,2470.203,2020-12-13T07:10:11Z
2020-12-13T05:12:15Z,42.805,6.029,13.2984,4.59998,2470.24,2020-12-13T07:13:14Z
2020-12-13T05:15:19Z,42.805,6.029,13.2981,4.59999,2470.217,2020-12-13T07:16:17Z
2020-12-13T05:18:22Z,42.805,6.029,13.2982,4.59998,2470.227,2020-12-13T07:19:20Z
2020-12-13T05:21:25Z,42.805,6.029,13.2983,4.59996,2470.25,2020-12-13T07:22:24Z
2020-12-13T05:24:28Z,42.805,6.029,13.2991,4.59991,2470.227,2020-12-13T07:25:27Z
2020-12-13T05:27:31Z,42.805,6.029,13.2982,4.59996,2470.25,2020-12-13T07:28:30Z
2020-12-13T05:30:34Z,42.805,6.029,13.2993,4.60003,2470.24,2020-12-13T07:31:33Z
2020-12-13T05:33:37Z,42.805,6.029,13.2988,4.59997,2470.25,2020-12-13T07:34:36Z
2020-12-13T05:36:40Z,42.805,6.029,13.2984,4.59994,2470.25,2020-12-13T07:37:39Z
2020-12-13T05:39:44Z,42.805,6.029,13.2986,4.60000,2470.25,2020-12-13T07:40:42Z
2020-12-13T05:42:47Z,42.805,6.029,13.2983,4.60005,2470.227,2020-12-13T07:43:45Z
2020-12-13T05:45:50Z,42.805,6.029,13.2974,4.59993,2470.264,2020-12-13T07:46:49Z
2020-12-13T05:48:53Z,42.805,6.029,13.2984,4.59986,2470.227,2020-12-13T07:49:52Z
2020-12-13T05:51:56Z,42.805,6.029,13.2982,4.59992,2470.24,2020-12-13T07:52:55Z
2020-12-13T05:54:59Z,42.805,6.029,13.2983,4.60001,2470.273,2020-12-13T07:55:58Z
2020-12-13T05:58:02Z,42.805,6.029,13.2984,4.60001,2470.227,2020-12-13T07:59:01Z
2020-12-13T06:01:05Z,42.805,6.029,13.2986,4.60001,2470.25,2020-12-13T08:02:04Z
2020-12-13T06:04:08Z,42.805,6.029,13.2983,4.59995,2470.217,2020-12-13T08:05:07Z
2020-12-13T06:07:12Z,42.805,6.029,13.2980,4.59998,2470.25,2020-12-13T08:08:10Z
2020-12-13T06:10:15Z,42.805,6.029,13.2981,4.59994,2470.227,2020-12-13T08:11:13Z
2020-12-13T06:13:18Z,42.805,6.029,13.2979,4.60001,2470.25,2020-12-13T08:14:17Z
2020-12-13T06:16:21Z,42.805,6.029,13.2986,4.60001,2470.25,2020-12-13T08:17:20Z
2020-12-13T06:19:24Z,42.805,6.029,13.2980,4.60000,2470.25,2020-12-13T08:20:23Z
2020-12-13T06:22:27Z,42.805,6.029,13.2979,4.59987,2470.273,2020-12-13T08:23:26Z
2020-12-13T06:25:30Z,42.805,6.029,13.2979,4.59993,2470.273,2020-12-13T08:26:29Z
2020-12-13T06:28:33Z,42.805,6.029,13.2983,4.59999,2470.287,2020-12-13T08:29:32Z
2020-12-13T06:31:37Z,42.805,6.029,13.2981,4.59997,2470.24,2020-12-13T08:32:35Z
2020-12-13T06:34:40Z,42.805,6.029,13.2981,4.59989,2470.264,2020-12-13T08:35:38Z
2020-12-13T06:37:43Z,42.805,6.029,13.2982,4.59997,2470.25,2020-12-13T08:38:42Z
2020-12-13T06:40:46Z,42.805,6.029,13.2976,4.59989,2470.287,2020-12-13T08:41:45Z
2020-12-13T06:43:49Z,42.805,6.029,13.2977,4.59992,2470.25,2020-12-13T08:44:48Z
2020-12-13T06:46:52Z,42.805,6.029,13.2982,4.59989,2470.287,2020-12-13T08:47:51Z
2020-12-13T06:49:55Z,42.805,6.029,13.2982,4.59996,2470.24,2020-12-13T08:50:54Z
2020-12-13T06:52:58Z,42.805,6.029,13.2983,4.59994,2470.25,2020-12-13T08:53:57Z
2020-12-13T06:56:02Z,42.805,6.029,13.2987,4.59993,2470.273,2020-12-13T08:57:00Z
2020-12-13T06:59:05Z,42.805,6.029,13.2981,4.59995,2470.227,2020-12-13T09:00:03Z
2020-12-13T07:02:08Z,42.805,6.029,13.2983,4.59995,2470.273,2020-12-13T09:03:07Z
2020-12-13T07:05:11Z,42.805,6.029,13.2982,4.59995,2470.227,2020-12-13T09:06:10Z
2020-12-13T07:08:14Z,42.805,6.029,13.2982,4.59997,2470.25,2020-12-13T09:09:13Z
2020-12-13T07:11:17Z,42.805,6.029,13.2982,4.59995,2470.273,2020-12-13T09:12:16Z
2020-12-13T07:14:20Z,42.805,6.029,13.2981,4.59993,2470.25,2020-12-13T09:15:19Z
2020-12-13T07:17:23Z,42.805,6.029,13.2977,4.59988,2470.227,2020-12-13T09:18:22Z
2020-12-13T07:20:27Z,42.805,6.029,13.2987,4.60001,2470.25,2020-12-13T09:21:25Z
2020-12-13T07:23:30Z,42.805,6.029,13.2987,4.60001,2470.264,2020-12-13T09:24:28Z
2020-12-13T07:26:33Z,42.805,6.029,13.2986,4.59991,2470.227,2020-12-13T09:27:32Z
2020-12-13T07:29:36Z,42.805,6.029,13.2980,4.59986,2470.217,2020-12-13T09:30:35Z
2020-12-13T07:32:39Z,42.805,6.029,13.2982,4.59994,2470.264,2020-12-13T09:33:38Z
2020-12-13T07:35:42Z,42.805,6.029,13.2980,4.59994,2470.264,2020-12-13T09:36:41Z
2020-12-13T07:38:45Z,42.805,6.029,13.2985,4.59998,2470.25,2020-12-13T09:39:44Z
2020-12-13T07:41:48Z,42.805,6.029,13.2988,4.59991,2470.25,2020-12-13T09:42:47Z
2020-12-13T07:44:52Z,42.805,6.029,13.2982,4.59996,2470.227,2020-12-13T09:45:50Z
2020-12-13T07:47:55Z,42.805,6.029,13.2983,4.59994,2470.25,2020-12-13T09:48:53Z
2020-12-13T07:50:58Z,42.805,6.029,13.2983,4.59998,2470.25,2020-12-13T09:51:57Z
2020-12-13T07:54:01Z,42.805,6.029,13.2979,4.59993,2470.227,2020-12-13T09:55:00Z
2020-12-13T07:57:04Z,42.805,6.029,13.2985,4.59997,2470.24,2020-12-13T09:58:03Z
2020-12-13T08:00:07Z,42.805,6.029,13.2991,4.60001,2470.24,2020-12-13T10:01:06Z
2020-12-13T08:03:10Z,42.805,6.029,13.2980,4.59998,2470.227,2020-12-13T10:04:09Z
2020-12-13T08:06:13Z,42.805,6.029,13.2982,4.59996,2470.264,2020-12-13T10:07:12Z
2020-12-13T08:09:17Z,42.805,6.029,13.2980,4.59989,2470.25,2020-12-13T10:10:15Z
2020-12-13T08:12:20Z,42.805,6.029,13.2981,4.59990,2470.264,2020-12-13T10:13:18Z
2020-12-13T08:15:23Z,42.805,6.029,13.2986,4.59995,2470.203,2020-12-13T10:16:22Z
2020-12-13T08:18:26Z,42.805,6.029,13.2982,4.59994,2470.24,2020-12-13T10:19:25Z
2020-12-13T08:21:29Z,42.805,6.029,13.2983,4.59991,2470.227,2020-12-13T10:22:28Z
2020-12-13T08:24:32Z,42.805,6.029,13.2979,4.59986,2470.227,2020-12-13T10:25:31Z
2020-12-13T08:27:35Z,42.805,6.029,13.2985,4.59998,2470.24,2020-12-13T10:28:34Z
2020-12-13T08:30:38Z,42.805,6.029,13.2984,4.59991,2470.227,2020-12-13T10:31:37Z
2020-12-13T08:33:42Z,42.805,6.029,13.2979,4.59995,2470.217,2020-12-13T10:34:40Z
2020-12-13T08:36:45Z,42.805,6.029,13.2983,4.59996,2470.227,2020-12-13T10:37:43Z
2020-12-13T08:39:48Z,42.805,6.029,13.2982,4.59999,2470.217,2020-12-13T10:40:47Z
2020-12-13T08:42:51Z,42.805,6.029,13.2984,4.59998,2470.227,2020-12-13T10:43:50Z
2020-12-13T08:45:54Z,42.805,6.029,13.2983,4.60000,2470.217,2020-12-13T10:46:53Z
2020-12-13T08:48:57Z,42.805,6.029,13.2983,4.60001,2470.203,2020-12-13T10:49:56Z
2020-12-13T08:52:00Z,42.805,6.029,13.2982,4.59997,2470.194,2020-12-13T10:52:59Z
2020-12-13T08:55:03Z,42.805,6.029,13.2987,4.59991,2470.203,2020-12-13T10:56:02Z
2020-12-13T08:58:07Z,42.805,6.029,13.2984,4.59996,2470.18,2020-12-13T10:59:05Z
2020-12-13T09:01:10Z,42.805,6.029,13.2982,4.59989,2470.18,2020-12-13T11:02:08Z
2020-12-13T09:04:13Z,42.805,6.029,13.2983,4.59994,2470.24,2020-12-13T11:05:12Z
2020-12-13T09:07:16Z,42.805,6.029,13.2980,4.59991,2470.203,2020-12-13T11:08:15Z
2020-12-13T09:10:19Z,42.805,6.029,13.2983,4.59996,2470.203,2020-12-13T11:11:18Z
2020-12-13T09:13:22Z,42.805,6.029,13.2982,4.59996,2470.203,2020-12-13T11:14:21Z
2020-12-13T09:16:25Z,42.805,6.029,13.2983,4.59994,2470.217,2020-12-13T11:17:24Z
2020-12-13T09:19:28Z,42.805,6.029,13.2984,4.59994,2470.217,2020-12-13T11:20:27Z
2020-12-13T09:22:32Z,42.805,6.029,13.2983,4.59995,2470.24,2020-12-13T11:23:30Z
2020-12-13T09:25:35Z,42.805,6.029,13.2985,4.59991,2470.18,2020-12-13T11:26:33Z
2020-12-13T09:28:38Z,42.805,6.029,13.2975,4.59988,2470.203,2020-12-13T11:29:37Z
2020-12-13T09:31:41Z,42.805,6.029,13.2983,4.59992,2470.18,2020-12-13T11:32:40Z
2020-12-13T09:34:44Z,42.805,6.029,13.2982,4.59996,2470.203,2020-12-13T11:35:43Z
2020-12-13T09:37:47Z,42.805,6.029,13.2986,4.59988,2470.203,2020-12-13T11:38:46Z
2020-12-13T09:40:50Z,42.805,6.029,13.2981,4.59995,2470.156,2020-12-13T11:41:49Z
2020-12-13T09:43:54Z,42.805,6.029,13.2983,4.59991,2470.194,2020-12-13T11:44:52Z
2020-12-13T09:46:57Z,42.805,6.029,13.2985,4.59991,2470.156,2020-12-13T11:47:55Z
2020-12-13T09:50:00Z,42.805,6.029,13.2985,4.59992,2470.194,2020-12-13T11:50:59Z
2020-12-13T09:53:03Z,42.805,6.029,13.2982,4.59995,2470.203,2020-12-13T11:54:02Z
2020-12-13T09:56:06Z,42.805,6.029,13.2986,4.59997,2470.171,2020-12-13T11:57:05Z
2020-12-13T09:59:09Z,42.805,6.029,13.2986,4.59999,2470.171,2020-12-13T12:00:08Z
2020-12-13T10:02:12Z,42.805,6.029,13.2983,4.59990,2470.171,2020-12-13T12:03:11Z
2020-12-13T10:05:15Z,42.805,6.029,13.2982,4.60000,2470.18,2020-12-13T12:06:14Z
2020-12-13T10:08:18Z,42.805,6.029,13.2979,4.59993,2470.133,2020-12-13T12:09:17Z
2020-12-13T10:11:22Z,42.805,6.029,13.2984,4.59995,2470.147,2020-12-13T12:12:20Z
2020-12-13T10:14:25Z,42.805,6.029,13.2986,4.59999,2470.171,2020-12-13T12:15:24Z
2020-12-13T10:17:28Z,42.805,6.029,13.2984,4.59997,2470.18,2020-12-13T12:18:27Z
2020-12-13T10:20:31Z,42.805,6.029,13.2986,4.59999,2470.156,2020-12-13T12:21:30Z
2020-12-13T10:23:34Z,42.805,6.029,13.2985,4.59992,2470.133,2020-12-13T12:24:33Z
2020-12-13T10:26:37Z,42.805,6.029,13.2983,4.59996,2470.171,2020-12-13T12:27:36Z
2020-12-13T10:29:40Z,42.805,6.029,13.2981,4.59984,2470.147,2020-12-13T12:30:39Z
2020-12-13T10:32:44Z,42.805,6.029,13.2980,4.59998,2470.156,2020-12-13T12:33:42Z
2020-12-13T10:35:47Z,42.805,6.029,13.2981,4.59988,2470.171,2020-12-13T12:36:45Z
2020-12-13T10:38:50Z,42.805,6.029,13.2986,4.59996,2470.18,2020-12-13T12:39:49Z
2020-12-13T10:41:53Z,42.805,6.029,13.2979,4.59989,2470.171,2020-12-13T12:42:52Z
2020-12-13T10:44:56Z,42.805,6.029,13.2979,4.59996,2470.171,2020-12-13T12:45:55Z
2020-12-13T10:47:59Z,42.805,6.029,13.2983,4.59991,2470.147,2020-12-13T12:48:58Z
2020-12-13T10:51:02Z,42.805,6.029,13.2985,4.60003,2470.11,2020-12-13T12:52:01Z
2020-12-13T10:54:05Z,42.805,6.029,13.2983,4.59991,2470.156,2020-12-13T12:55:04Z
2020-12-13T10:57:09Z,42.805,6.029,13.2983,4.60001,2470.147,2020-12-13T12:58:07Z
2020-12-13T11:00:12Z,42.805,6.029,13.2986,4.60003,2470.156,2020-12-13T13:01:10Z
2020-12-13T11:03:15Z,42.805,6.029,13.2982,4.59999,2470.124,2020-12-13T13:04:14Z
2020-12-13T11:06:18Z,42.805,6.029,13.2988,4.59997,2470.133,2020-12-13T13:07:17Z
2020-12-13T11:09:21Z,42.805,6.029,13.2982,4.59995,2470.124,2020-12-13T13:10:20Z
2020-12-13T11:12:24Z,42.805,6.029,13.2985,4.59996,2470.171,2020-12-13T13:13:23Z
2020-12-13T11:15:27Z,42.805,6.029,13.2981,4.60000,2470.133,2020-12-13T13:16:26Z
2020-12-13T11:18:30Z,42.805,6.029,13.2983,4.59997,2470.11,2020-12-13T13:19:29Z
2020-12-13T11:21:34Z,42.805,6.029,13.2983,4.59992,2470.133,2020-12-13T13:22:32Z
2020-12-13T11:24:37Z,42.805,6.029,13.2980,4.60002,2470.147,2020-12-13T13:25:35Z
2020-12-13T11:27:40Z,42.805,6.029,13.2983,4.59996,2470.133,2020-12-13T13:28:39Z
2020-12-13T11:30:43Z,42.805,6.029,13.2980,4.60000,2470.087,2020-12-13T13:31:42Z
2020-12-13T11:33:46Z,42.805,6.029,13.2987,4.59999,2470.133,2020-12-13T13:34:45Z
2020-12-13T11:36:49Z,42.805,6.029,13.2988,4.59991,2470.119,2020-12-13T13:37:48Z
2020-12-13T11:39:52Z,42.805,6.029,13.2981,4.59996,2470.077,2020-12-13T13:40:51Z
2020-12-13T11:42:55Z,42.805,6.029,13.2982,4.60000,2470.133,2020-12-13T13:43:54Z
2020-12-13T11:45:59Z,42.805,6.029,13.2981,4.59993,2470.087,2020-12-13T13:46:57Z
2020-12-13T11:49:02Z,42.805,6.029,13.2982,4.59995,2470.133,2020-12-13T13:50:00Z
2020-12-13T11:52:05Z,42.805,6.029,13.2982,4.59999,2470.073,2020-12-13T13:53:04Z
2020-12-13T11:55:08Z,42.805,6.029,13.2985,4.60006,2470.087,2020-12-13T13:56:07Z
2020-12-13T11:58:11Z,42.805,6.029,13.2989,4.59997,2470.124,2020-12-13T13:59:10Z
2020-12-13T12:01:14Z,42.805,6.029,13.2978,4.59990,2470.124,2020-12-13T14:02:13Z
2020-12-13T12:04:17Z,42.805,6.029,13.2983,4.59999,2470.11,2020-12-13T14:05:16Z
2020-12-13T12:07:20Z,42.805,6.029,13.2984,4.59994,2470.11,2020-12-13T14:08:19Z
2020-12-13T12:10:24Z,42.805,6.029,13.2983,4.59999,2470.133,2020-12-13T14:11:22Z
2020-12-13T12:13:27Z,42.805,6.029,13.2990,4.60009,2470.124,2020-12-13T14:14:25Z
2020-12-13T12:16:30Z,42.805,6.029,13.2986,4.60003,2470.124,2020-12-13T14:17:29Z
2020-12-13T12:19:33Z,42.805,6.029,13.2988,4.60009,2470.124,2020-12-13T14:20:32Z
2020-12-13T12:22:36Z,42.805,6.029,13.2984,4.59993,2470.087,2020-12-13T14:23:35Z
2020-12-13T12:25:39Z,42.805,6.029,13.2987,4.60000,2470.124,2020-12-13T14:26:38Z
2020-12-13T12:28:42Z,42.805,6.029,13.2988,4.60014,2470.124,2020-12-13T14:29:41Z
2020-12-13T12:31:46Z,42.805,6.029,13.2986,4.60008,2470.063,2020-12-13T14:32:44Z
2020-12-13T12:34:49Z,42.805,6.029,13.2983,4.60003,2470.11,2020-12-13T14:35:47Z
2020-12-13T12:37:52Z,42.805,6.029,13.2980,4.60007,2470.063,2020-12-13T14:38:51Z
2020-12-13T12:40:55Z,42.805,6.029,13.2985,4.60001,2470.087,2020-12-13T14:41:54Z
2020-12-13T12:43:58Z,42.805,6.029,13.2982,4.59997,2470.077,2020-12-13T14:44:57Z
2020-12-13T12:47:01Z,42.805,6.029,13.2986,4.60003,2470.087,2020-12-13T14:48:00Z
2020-12-13T12:50:04Z,42.805,6.029,13.2979,4.60006,2470.1,2020-12-13T14:51:03Z
2020-12-13T12:53:07Z,42.805,6.029,13.2985,4.60010,2470.063,2020-12-13T14:54:06Z
2020-12-13T12:56:11Z,42.805,6.029,13.2979,4.60001,2470.1,2020-12-13T14:57:09Z
2020-12-13T12:59:14Z,42.805,6.029,13.2986,4.60006,2470.11,2020-12-13T15:00:12Z
2020-12-13T13:02:17Z,42.805,6.029,13.2987,4.60006,2470.124,2020-12-13T15:03:16Z
2020-12-13T13:05:20Z,42.805,6.029,13.2986,4.60003,2470.087,2020-12-13T15:06:19Z
2020-12-13T13:08:23Z,42.805,6.029,13.2983,4.59999,2470.124,2020-12-13T15:09:22Z
2020-12-13T13:11:26Z,42.805,6.029,13.2984,4.60003,2470.087,2020-12-13T15:12:25Z
2020-12-13T13:14:29Z,42.805,6.029,13.2988,4.60010,2470.087,2020-12-13T15:15:28Z
2020-12-13T13:17:32Z,42.805,6.029,13.2990,4.60008,2470.087,2020-12-13T15:18:31Z
2020-12-13T13:20:36Z,42.805,6.029,13.2983,4.59992,2470.087,2020-12-13T15:21:34Z
2020-12-13T13:23:39Z,42.805,6.029,13.2989,4.60005,2470.147,2020-12-13T15:24:37Z
2020-12-13T13:26:42Z,42.805,6.029,13.2989,4.60012,2470.11,2020-12-13T15:27:41Z
2020-12-13T13:29:45Z,42.805,6.029,13.2987,4.60003,2470.124,2020-12-13T15:30:44Z
2020-12-13T13:32:48Z,42.805,6.029,13.2979,4.59992,2470.147,2020-12-13T15:33:47Z
2020-12-13T13:35:51Z,42.805,6.029,13.2983,4.59998,2470.087,2020-12-13T15:36:50Z
2020-12-13T13:38:54Z,42.805,6.029,13.2988,4.60004,2470.077,2020-12-13T15:39:53Z
2020-12-13T13:41:57Z,42.805,6.029,13.2990,4.60021,2470.087,2020-12-13T15:42:56Z
2020-12-13T13:45:01Z,42.805,6.029,13.2985,4.59999,2470.11,2020-12-13T15:45:59Z
2020-12-13T13:48:04Z,42.805,6.029,13.2986,4.60005,2470.124,2020-12-13T15:49:02Z
2020-12-13T13:51:07Z,42.805,6.029,13.2996,4.60008,2470.124,2020-12-13T15:52:06Z
2020-12-13T13:54:10Z,42.805,6.029,13.2983,4.60009,2470.087,2020-12-13T15:55:09Z
2020-12-13T13:57:13Z,42.805,6.029,13.2983,4.60006,2470.133,2020-12-13T15:58:12Z
2020-12-13T14:00:16Z,42.805,6.029,13.2983,4.59993,2470.133,2020-12-13T16:01:15Z
2020-12-13T14:03:19Z,42.805,6.029,13.2986,4.60006,2470.133,2020-12-13T16:04:18Z
2020-12-13T14:06:22Z,42.805,6.029,13.2989,4.60008,2470.147,2020-12-13T16:07:21Z
2020-12-13T14:09:26Z,42.805,6.029,13.2984,4.60001,2470.156,2020-12-13T16:10:24Z
2020-12-13T14:12:29Z,42.805,6.029,13.2990,4.59999,2470.133,2020-12-13T16:13:27Z
2020-12-13T14:15:32Z,42.805,6.029,13.2985,4.59999,2470.147,2020-12-13T16:16:31Z
2020-12-13T14:18:35Z,42.805,6.029,13.2987,4.60012,2470.171,2020-12-13T16:19:34Z
2020-12-13T14:21:38Z,42.805,6.029,13.2985,4.60009,2470.133,2020-12-13T16:22:37Z
2020-12-13T14:24:41Z,42.805,6.029,13.2985,4.60011,2470.171,2020-12-13T16:25:40Z
2020-12-13T14:27:44Z,42.805,6.029,13.2998,4.60023,2470.133,2020-12-13T16:28:43Z
2020-12-13T14:30:47Z,42.805,6.029,13.2992,4.60019,2470.143,2020-12-13T16:31:46Z
2020-12-13T14:33:51Z,42.805,6.029,13.2995,4.60014,2470.124,2020-12-13T16:34:49Z
2020-12-13T14:36:54Z,42.805,6.029,13.2986,4.60009,2470.147,2020-12-13T16:37:52Z
2020-12-13T14:39:57Z,42.805,6.029,13.2984,4.60010,2470.133,2020-12-13T16:40:56Z
2020-12-13T14:43:00Z,42.805,6.029,13.2990,4.60011,2470.147,2020-12-13T16:43:59Z
2020-12-13T14:46:03Z,42.805,6.029,13.2990,4.60010,2470.18,2020-12-13T16:47:02Z
2020-12-13T14:49:06Z,42.805,6.029,13.2998,4.60014,2470.147,2020-12-13T16:50:05Z
2020-12-13T14:52:09Z,42.805,6.029,13.2987,4.60014,2470.133,2020-12-13T16:53:08Z
2020-12-13T14:55:12Z,42.805,6.029,13.2989,4.60011,2470.194,2020-12-13T16:56:11Z
2020-12-13T14:58:16Z,42.805,6.029,13.2991,4.60013,2470.171,2020-12-13T16:59:14Z
2020-12-13T15:01:19Z,42.805,6.029,13.2996,4.60016,2470.18,2020-12-13T17:02:17Z